Regional Weather Roundup
Issued by NWS

Home | Current Version | Previous Version | Text Only | Print | Product List | Glossary Off
Versions: 1 2 3 4 5 6 7 8 9 10 11 12 13 14 15 16 17 18 19 20 21 22 23 24 25 26 27 28 29 30 31 32 33 34 35 36 37 38 39 40 41 42 43 44 45 46 47 48 49 50

000
ASUS43 KDMX 141207
RWRIA

WEATHER ROUNDUP FOR IOWA
NATIONAL WEATHER SERVICE DES MOINES IA
700 AM CDT MON JUL 14 2014

NOTE: "FAIR" INDICATES FEW OR NO CLOUDS BELOW 12,000 FEET WITH NO
SIGNIFICANT WEATHER AND/OR OBSTRUCTIONS TO VISIBILITY.

* - THESE STATIONS ARE NOT NWS STATIONS...THUS NOT UNDER NWS
QUALITY CONTROL.  THEY ALSO DO NOT REPORT WEATHER SUCH
AS PRECIPITATION OR FOG.

IAZ001>003-012>014-020>022-031>034-043>046-141300-
   NORTHWEST IOWA

CITY           SKY/WX    TMP DP  RH WIND       PRES   REMARKS
CARROLL *      CLEAR     59  55  88 W7        29.99R
CHEROKEE *     CLEAR     56  53  89 CALM      30.01R
DENISON *      CLEAR     59  57  94 MISG      30.01R
LE MARS *      CLEAR     57  52  82 NW5       30.04R
ORANGE CITY *  CLEAR     55  50  82 NW6       30.04R
SHELDON *      CLEAR     54  50  87 NW7       30.02R
SIOUX CITY     CLEAR     59  55  87 NW5       30.04R
6HR MIN TEMP:  56; 6HR MAX TEMP:  66;

SPENCER        PTCLDY    54  51  90 NW7       30.01R
6HR MIN TEMP:  50; 6HR MAX TEMP:  58;

STORM LAKE *   CLEAR     55  54  94 W8        30.01R
$$

IAZ055>058-069>071-079>083-090>094-141300-
   SOUTHWEST IOWA

CITY           SKY/WX    TMP DP  RH WIND       PRES   REMARKS
ATLANTIC *     MOCLDY    64  61  88 CALM      30.00R
AUDUBON *      CLEAR     64  61  88 CALM      30.02R
CLARINDA *     CLOUDY    66  63  88 NW3       30.03R
COUNCIL BLFS * CLOUDY    63  59  88 W8        30.03R
CRESTON *      LGT RAIN  64  59  82 NW20G26   30.02R
HARLAN  *      PTCLDY    63  61  94 CALM      30.05R FOG
LAMONI         LGT RAIN  68  64  87 NW14      30.00R
6HR MIN TEMP:  67; 6HR MAX TEMP:  72; 6HR PCP: TRACE;

RED OAK *      CLOUDY    64  57  77 W5        30.03R
SHENANDOAH *   MOCLDY    66  61  82 N5        30.04R
$$

IAZ047>049-059>061-072>074-084-141300-
   CENTRAL IOWA

CITY           SKY/WX    TMP DP  RH WIND       PRES   REMARKS
AMES           SUNNY     60  59  96 CALM      29.95R
6HR MIN TEMP:  58; 6HR MAX TEMP:  72;

ANKENY *       SUNNY     64  59  82 NW8       29.95R
CHARITON *     MOSUNNY   68  64  88 NW9       29.96R
DES MOINES     PTSUNNY   67  61  81 NW6       29.95R
6HR MIN TEMP:  67; 6HR MAX TEMP:  73; 6HR PCP: TRACE;

GRINNELL*      SUNNY     62  59  91 NW6       29.94R
KNOXVILLE *    MOSUNNY   68  63  83 NW6       29.92S
MARSHALLTOWN     N/A     59  58  96 W6        29.93R
6HR MIN TEMP:  57; 6HR MAX TEMP:  68; 6HR PCP: TRACE;

PELLA *        SUNNY     67  63  85 N3        29.94R
PERRY *          N/A     61  59  94 W5        29.98S FOG
$$

IAZ004>006-015-016-023>025-035-036-141300-
   NORTH CENTRAL IOWA

CITY           SKY/WX    TMP DP  RH WIND       PRES   REMARKS
ALGONA *       SUNNY     57  52  82 NW8       29.98R
CLARION *      SUNNY     57  55  94 NW3       29.96S
ESTHERVILLE    SUNNY     54  50  86 NW7       29.99R
6HR MIN TEMP:  52; 6HR MAX TEMP:  57;

FORT DODGE *   SUNNY     57  52  82 CALM      29.97S
MASON CITY     SUNNY     56  52  86 NW8       29.96R
6HR MIN TEMP:  52; 6HR MAX TEMP:  60;

FOREST CITY *  SUNNY     55  52  88 NW6       29.96R
IOWA FALLS *     N/A     59  55  88 W6        29.96R
$$

IAZ007>011-017>019-026>030-037>042-050>054-066-141300-
   NORTHEAST IOWA

CITY           SKY/WX    TMP DP  RH WIND       PRES   REMARKS
CEDAR RAPIDS   MOSUNNY   62  58  86 NW5       29.90R
6HR MIN TEMP:  62; 6HR MAX TEMP:  69; 6HR PCP: TRACE;

CHARLES CITY * SUNNY     57  54  88 W7        29.94R
CLINTON *      PTSUNNY   64  63  94 NW6       29.90R
DECORAH *        N/A    N/A N/A N/A MISG        N/A
DUBUQUE        MOSUNNY   63  59  87 N6        29.89S
6HR MIN TEMP:  60; 6HR MAX TEMP:  65;

MONTICELLO *   MOSUNNY   63  61  94 CALM      29.89R
OELWEIN *      SUNNY     59  59 100 W5        29.92R
WATERLOO       SUNNY     60  57  89 CALM      29.91R
6HR MIN TEMP:  57; 6HR MAX TEMP:  65;

$$

IAZ064-065-067-068-078-141300-
   EAST CENTRAL IOWA

CITY           SKY/WX    TMP DP  RH WIND       PRES   REMARKS
DAVENPORT        N/A     67  64  90 W6        29.88S
6HR MIN TEMP:  64; 6HR MAX TEMP:  68;

IOWA CITY      SUNNY     67  63  87 NW6       29.91R
6HR MIN TEMP:  65; 6HR MAX TEMP:  69;

MT. PLEASANT * SUNNY     67  65  93 W5        29.90S
MUSCATINE *    SUNNY     68  66  94 W3        29.89R
QUAD CITIES    MOSUNNY   68  64  87 CALM      29.87R
6HR MIN TEMP:  64; 6HR MAX TEMP:  68;

$$

IAZ062-063-075>077-085>089-095>099-141300-
   SOUTHEAST IOWA

CITY           SKY/WX    TMP DP  RH WIND       PRES   REMARKS
BURLINGTON     SUNNY     69  66  90 VRB5      29.90R
6HR MIN TEMP:  66; 6HR MAX TEMP:  70; 6HR PCP: TRACE;

FAIRFIELD *    MOSUNNY   68  64  88 W6        29.91R
FORT MADISON * SUNNY     70  66  88 SW3       29.91R
KEOKUK *       SUNNY     70  68  94 SW6       29.89S
OSKALOOSA *      N/A     67  66  97 N5        29.92S
CENTERVILLE *  SUNNY     68  68 100 W5        29.95R
OTTUMWA        MOSUNNY   67  65  93 NW6       29.91S
6HR MIN TEMP:  66; 6HR MAX TEMP:  69;

WASHINGTON *   MOSUNNY   68  64  88 NW9       29.90R
$$

ABBREVIATIONS USED IN REMARKS
   TC - TEMPERATURES IN CELSIUS
  WCI - WIND CHILL INDEX
   HX - HEAT INDEX
  VSB - VISIBILITY
$$




USA.gov is the U.S. government's official web portal to all federal, state and local government web resources and services.